Location: Dziadowski
(50.3833°N, 20.0333°E)
Time: 18:26:29
(UTC+00:00)

BREEZE-M DEB (TANK) - Pass Details

Date: 18 January 2026
Orbit: 325 x 14637 km, 49.5° (Epoch: 17 February)

Event Time Altitude Azimuth Distance (km) Brightness Sun altitude
Exits shadow 04:12:37 57° 143° (SE) 495 3.2 -21.6°
Drops below altitude 10° 04:16:12 10° 106° (ESE) 2,166 7.5 -21.0°
Sets 04:19:59 0° 105° (ESE) 4,057 9.3 -20.4°
